Location: Davayat
(45.9471°N, 3.1105°E)
Time: 16:47:11
(UTC+00:00)

Cosmos 2228 Rocket - Pass Details

Date: 01 December 2020
Orbit: 618 x 652 km, 82.5° (Epoch: 23 January)

Event Time Altitude Azimuth Distance (km) Brightness Sun altitude
Rises 17:26:27 0° 161° (SSE) 2,949 6.5 -13.8°
Reaches altitude 10° 17:28:53 10° 151° (SSE) 2,039 5.6 -14.3°
Maximum altitude 17:32:51 31° 90° (E) 1,135 3.9 -14.9°
Enters shadow 17:34:36 23° 51° (NE) 1,362 4.3 -15.2°
